Terminal Aerodrome Forecast
Issued by NWS North Platte, NE

Home | Current Version | Previous Version | Graphics & Text | Print | Product List | Glossary On
Versions: 1 2 3 4 5 6 7 8 9 10
000
FTUS43 KLBF 222321
TAFVTN
TAF
KVTN 222321Z 2300/2324 16009KT P6SM SCT120 BKN250
      TEMPO 2303/2306 P6SM -TSRA BKN050CB OVC100
     FM231400 21009KT P6SM SCT150
     FM231700 28011KT P6SM FEW150=

USA.gov is the U.S. government's official web portal to all federal, state and local government web resources and services.